This is the latest recevied weather packets stored in our database for station/object R6HABA-13. If no packets are shown the sender has not sent any weather packets the latest 10 day(s).
| Time | Temp. | Humidity | Pressure | Rain* | Wind** | Luminosity | Snow |
|---|---|---|---|---|---|---|---|
| 1777724103 | 12.78° C | 49% | 1020 hPa | - | 3.13 m/s, 239° | - | - |
| 1777723399 | -17.78° C | - | 0 hPa | - | 0 m/s | - | - |
| 1777722060 | -17.78° C | - | 0 hPa | - | 0 m/s | - | - |
| 1777720503 | 11.67° C | 49% | 1021 hPa | - | 3.58 m/s, 248° | - | - |
| 1777719603 | 11.67° C | 49% | 1021 hPa | - | 3.58 m/s, 248° | - | - |
| 1777718703 | 11.67° C | 49% | 1021 hPa | - | 3.58 m/s, 248° | - | - |
| 1777717803 | 11.67° C | 49% | 1021 hPa | - | 3.58 m/s, 248° | - | - |
| 1777716902 | 11.67° C | 49% | 1021 hPa | - | 3.58 m/s, 248° | - | - |
| 1777716003 | 11.67° C | 49% | 1021 hPa | - | 3.58 m/s, 248° | - | - |
| 1777714203 | 11.67° C | 49% | 1021 hPa | - | 3.58 m/s, 248° | - | - |
| 1777713303 | 11.67° C | 49% | 1021 hPa | - | 3.58 m/s, 248° | - | - |
| 1777712663 | -17.78° C | - | 1021 hPa | - | 3.58 m/s, 0° | - | - |
| 1777711764 | 10° C | 54% | 0 hPa | - | 3.58 m/s, 0° | - | - |
| 1777710602 | 10° C | 54% | 1021 hPa | - | 3.58 m/s, 249° | - | - |
| 1777709703 | 10° C | 54% | 1022 hPa | - | 3.58 m/s, 249° | - | - |
| 1777708803 | 10° C | 54% | 1022 hPa | - | 3.58 m/s, 249° | - | - |
| 1777707002 | 7.78° C | 57% | 1022 hPa | - | 3.58 m/s, 247° | - | - |
| 1777706103 | 8.33° C | 57% | 1023 hPa | - | 3.58 m/s, 247° | - | - |
| 1777705334 | -17.78° C | 62% | 1023 hPa | - | 3.13 m/s, 246° | - | - |
| 1777704302 | 7.22° C | 62% | 1023 hPa | - | 3.13 m/s, 246° | - | - |
| 1777703402 | 7.22° C | 62% | 1023 hPa | - | 3.13 m/s, 246° | - | - |
| 1777702502 | 7.22° C | 62% | 1023 hPa | - | 3.13 m/s, 246° | - | - |
| 1777701603 | 7.22° C | 62% | 1023 hPa | - | 3.13 m/s, 246° | - | - |
| 1777700703 | 7.22° C | 62% | 1023 hPa | - | 3.13 m/s, 246° | - | - |
| 1777699804 | 2.78° C | 83% | 1023 hPa | - | 2.24 m/s, 244° | - | - |
* Rain since midnight (hover to see other rain measurements)
** Current wind speed in m/s (hover to see current wind gust speed)